This is the latest recevied weather packets stored in our database for station/object DELTON-WX. If no packets are shown the sender has not sent any weather packets the latest 10 day(s).
| Time | Temp. | Humidity | Pressure | Rain* | Wind** | Luminosity | Snow |
|---|---|---|---|---|---|---|---|
| 1777945547 | 17.22° C | 69% | 966.9 hPa | 0 mm | - | - | - |
| 1777944665 | 17.78° C | 69% | 966.9 hPa | 0 mm | - | - | - |
| 1777943748 | 17.22° C | 69% | 966.8 hPa | 0 mm | - | - | - |
| 1777942877 | 17.22° C | 69% | 966.8 hPa | 0 mm | - | - | - |
| 1777941947 | 17.22° C | 42% | 967.2 hPa | 0 mm | - | - | - |
| 1777941064 | 18.89° C | 46% | 968 hPa | 0 mm | - | - | - |
| 1777940146 | 19.44° C | 46% | 968 hPa | 0 mm | - | - | - |
| 1777939286 | 20° C | 46% | 968 hPa | 0 mm | - | - | - |
| 1777938348 | 20.56° C | 39% | 967.6 hPa | 0 mm | - | - | - |
| 1777937466 | 21.11° C | 37% | 967.7 hPa | 0 mm | - | - | - |
| 1777936547 | 21.11° C | 37% | 967.7 hPa | 0 mm | - | - | - |
| 1777935674 | 21.67° C | 37% | 967.7 hPa | 0 mm | - | - | - |
| 1777934747 | 21.67° C | 38% | 967.2 hPa | 0 mm | - | - | - |
| 1777933868 | 22.22° C | 37% | 967.5 hPa | 0 mm | - | - | - |
| 1777932947 | 22.22° C | 37% | 967.5 hPa | 0 mm | - | - | - |
| 1777932084 | 22.78° C | 37% | 967.5 hPa | 0 mm | - | - | - |
| 1777931146 | 22.78° C | 35% | 968.7 hPa | 0 mm | - | - | - |
| 1777930268 | 22.78° C | 35% | 968.7 hPa | 0 mm | - | - | - |
| 1777929346 | 22.78° C | 37% | 967.7 hPa | 0 mm | - | - | - |
| 1777928480 | 22.78° C | 37% | 967.7 hPa | 0 mm | - | - | - |
| 1777927551 | 22.78° C | 37% | 968.3 hPa | 0 mm | - | - | - |
| 1777926662 | 22.78° C | 37% | 968.3 hPa | 0 mm | - | - | - |
| 1777925753 | 22.78° C | 37% | 968.3 hPa | 0 mm | - | - | - |
| 1777924878 | 22.78° C | 37% | 967.7 hPa | 0 mm | - | - | - |
| 1777923953 | 22.78° C | 41% | 968.9 hPa | 0 mm | - | - | - |
* Rain latest hour (hover to see other rain measurements)
** Current wind speed in m/s (hover to see current wind gust speed)